Location: Hains Lake
(37.8540°N, 99.8578°W)
Time: 01:48:59
(UTC+00:00)

Cosmos 1420 Rocket - Pass Details

Date: 11 December 2019
Orbit: 754 x 781 km, 74.0° (Epoch: 25 January)

Event Time Altitude Azimuth Distance (km) Brightness Sun altitude
Exits shadow 12:05:41 27° 245° (WSW) 1,427 5.0 -19.0°
Maximum altitude 12:07:50 40° 293° (WNW) 1,112 4.3 -18.5°
Drops below altitude 10° 12:12:42 10° 3° (N) 2,287 6.3 -17.6°
Sets 12:15:13 0° 11° (N) 3,215 7.2 -17.1°
